Theta_e
311 311 311 311 310 310 310 310 310 310 310 310 310 310 310 310 310 310 310 310 312 313 314 314 314 315 316 316 315 315 315 315 315 314 315 316 316 317 317 317 318 318 318 318 318 317 316 316 317 317 317 319 319 320 323 321 321 321 324 324 323 324 324 325 325 323 322 323 319 316 317 317 317 317 316 316 316 316 316 316 317 316 316 316 316 316 316 316
310 310 310 310 310 310 310 310 310 310 309 309 310 310 310 310 310 310 309 310 310 311 313 314 314 314 314 316 316 316 315 315 315 315 315 316 316 316 316 317 319 318 318 318 319 318 317 318 318 317 318 320 320 321 323 322 320 322 325 325 323 325 324 322 322 321 320 320 319 318 317 317 317 317 315 316 316 315 315 315 316 316 316 315 315 315 315 315
310 310 310 310 310 310 310 310 310 310 310 310 310 310 309 310 310 310 310 310 310 310 310 312 314 314 314 314 315 317 316 315 315 316 316 316 317 316 316 317 319 318 318 318 319 319 319 319 319 318 318 319 321 322 323 322 321 320 322 324 324 324 323 321 321 320 319 319 318 318 318 317 317 317 315 315 316 315 315 315 315 315 316 315 315 315 315 314
310 310 310 310 310 310 311 311 311 311 310 310 310 309 310 310 310 310 310 310 310 310 310 310 311 313 314 314 315 316 316 317 318 318 318 318 317 316 316 317 319 319 318 317 318 319 319 319 319 318 318 318 320 322 322 322 322 321 321 322 323 322 322 321 319 319 318 318 317 317 317 317 317 317 315 315 316 316 316 316 316 316 316 316 315 315 315 314
310 310 310 311 310 311 311 311 311 311 311 311 311 310 310 310 310 310 310 310 310 310 310 310 310 311 312 313 314 316 318 320 321 321 320 319 318 317 316 316 317 318 318 318 318 318 318 319 318 318 318 319 320 322 322 321 321 321 321 321 321 320 321 320 318 318 317 316 316 316 316 317 317 316 316 315 315 316 317 317 317 317 317 317 316 316 315 315
310 310 310 311 311 311 311 312 312 312 312 312 311 311 311 311 310 310 310 311 311 311 310 310 310 310 310 312 313 315 318 320 321 320 318 318 318 316 316 315 316 317 318 318 317 317 317 318 318 318 318 319 320 321 321 321 320 320 320 320 320 320 320 319 318 317 316 316 315 315 316 316 316 316 316 316 315 316 317 318 318 317 318 317 317 316 316 316
310 310 310 311 311 311 312 312 312 312 312 312 312 312 312 312 312 311 311 311 311 311 311 311 311 310 310 311 312 314 316 317 317 318 317 317 317 316 315 315 316 316 316 317 318 317 317 318 319 319 319 319 320 320 320 320 319 319 319 318 319 319 319 319 318 317 316 315 315 315 315 315 315 316 316 316 316 316 316 317 317 317 317 317 317 316 316 316
310 310 311 311 311 311 312 312 312 313 313 313 313 313 313 312 313 312 312 312 312 312 312 311 311 311 311 310 312 316 317 316 315 316 317 317 317 316 315 315 315 316 316 316 317 317 317 319 319 319 320 320 320 320 319 319 318 318 318 318 319 318 318 318 317 317 315 315 314 315 314 314 315 315 315 315 316 316 316 316 316 316 316 316 316 316 316 315
310 310 311 311 311 311 312 312 312 313 313 313 313 313 313 313 314 313 314 313 313 312 312 312 312 311 311 310 313 318 319 319 319 319 319 318 318 317 315 315 314 315 315 316 316 317 317 318 319 320 319 319 319 319 319 319 318 317 317 318 317 317 317 317 317 316 315 315 314 314 314 314 314 315 315 315 316 316 316 317 316 316 316 316 316 315 315 315
310 310 310 310 311 311 311 311 312 312 313 313 313 313 313 313 314 314 315 314 314 313 313 312 312 311 311 311 316 319 319 320 320 320 318 317 316 317 316 316 315 315 315 315 316 316 317 317 319 319 318 317 318 319 319 318 318 317 316 316 315 315 316 316 317 317 316 315 315 314 314 314 314 315 315 316 316 317 317 316 316 316 316 315 315 314 314 314
310 310 310 310 310 311 311 311 311 312 312 313 313 313 313 314 314 315 315 315 315 314 314 314 312 312 311 311 317 319 317 318 317 316 316 315 315 316 317 317 316 316 315 315 315 315 316 317 318 317 317 317 317 318 318 317 317 316 316 315 315 315 315 316 316 316 316 316 315 314 314 314 314 315 315 315 316 316 317 317 316 316 316 316 315 314 314 314
312 312 311 312 311 312 312 312 312 312 312 313 313 313 314 314 314 314 315 315 315 315 315 315 313 312 311 312 316 317 315 316 315 315 315 314 314 315 316 317 317 315 314 314 315 316 315 316 316 316 317 317 318 318 317 316 316 315 314 314 315 316 316 316 316 316 316 316 315 314 314 314 314 314 315 315 316 315 316 316 316 316 316 316 315 315 314 314
314 314 314 314 314 314 314 314 314 314 314 314 314 314 314 314 314 314 315 315 315 315 315 314 314 312 311 314 315 315 315 316 314 314 313 313 314 314 315 316 316 315 313 313 315 316 315 315 315 316 316 317 317 317 316 315 315 315 315 315 316 316 316 317 317 317 315 315 314 314 315 315 315 315 315 316 316 315 315 315 316 316 316 316 315 315 315 314
313 314 314 314 315 315 315 315 315 315 315 315 315 315 315 315 315 315 314 315 314 315 314 314 314 311 312 314 315 315 315 315 315 314 313 313 313 314 315 316 316 315 313 313 313 314 314 314 314 315 315 316 316 316 316 316 316 315 315 316 317 317 317 318 317 317 316 314 314 314 314 315 316 316 316 317 317 316 315 315 315 316 316 315 315 315 315 314
310 310 311 311 312 312 313 313 313 314 314 315 315 315 315 315 315 315 315 315 314 314 314 314 313 312 314 316 315 316 315 315 315 314 313 313 313 314 315 315 316 315 314 313 313 313 313 314 314 315 315 315 315 316 316 317 317 316 316 318 320 318 318 319 317 316 316 313 312 315 315 315 315 316 316 317 317 316 316 315 315 315 315 315 315 315 314 314
308 308 309 309 309 309 309 310 309 311 311 312 313 313 313 314 314 314 314 314 314 314 314 314 314 313 315 316 316 316 316 316 315 315 314 313 313 314 315 315 315 315 314 313 313 313 313 313 314 315 316 315 315 316 317 318 319 318 318 318 321 319 318 319 317 314 315 314 312 314 316 315 315 316 317 317 317 316 315 315 315 315 315 315 315 315 315 314
311 311 311 311 311 311 311 310 310 310 310 310 311 311 311 311 312 312 312 312 312 312 313 314 316 315 315 315 316 316 316 316 316 315 315 314 314 314 315 315 314 314 313 313 313 313 313 314 315 316 315 315 315 317 319 320 320 320 320 319 320 320 319 319 318 315 314 315 314 314 314 314 315 315 316 316 317 316 315 315 316 315 315 315 315 315 315 314
313 313 313 313 313 314 313 313 313 312 312 312 311 312 311 311 311 311 311 310 311 313 313 313 315 316 316 316 316 316 317 316 315 315 314 314 314 314 315 314 314 314 313 313 313 314 314 314 316 317 317 316 315 317 320 320 319 320 320 318 319 320 319 319 318 316 315 315 315 314 314 313 314 315 315 315 316 316 315 315 316 315 315 315 315 315 314 315
313 314 314 314 314 315 315 315 315 314 314 314 314 313 313 312 313 312 311 311 312 315 316 314 315 317 317 317 317 316 316 315 314 314 314 314 314 314 314 314 314 314 314 315 315 314 315 316 319 321 319 317 316 316 318 318 318 318 318 318 319 319 318 318 318 316 315 315 315 314 314 314 314 315 315 315 315 315 315 315 315 315 315 315 315 314 314 314
312 312 313 313 313 314 314 314 315 315 315 315 315 314 313 314 315 315 314 313 313 315 316 316 316 317 316 317 317 316 315 314 314 314 314 314 314 314 313 313 314 315 315 317 318 315 316 318 321 321 318 317 317 317 317 318 318 318 319 320 320 319 318 317 318 317 314 315 315 315 315 315 315 315 315 315 315 315 314 314 314 314 315 315 314 314 315 315
310 310 310 310 311 311 311 312 312 313 312 313 313 313 313 314 315 315 313 313 313 313 314 315 315 316 316 316 316 316 315 314 314 314 314 314 314 314 313 313 315 316 315 316 318 317 318 319 320 318 317 317 318 318 318 319 318 318 320 320 319 319 318 317 318 316 313 314 315 315 315 314 315 315 315 315 315 314 314 313 314 314 314 315 315 314 314 315
310 309 309 309 309 310 310 310 310 310 310 310 310 311 312 312 312 312 311 311 311 311 312 312 313 314 315 315 315 315 314 314 313 314 314 314 313 313 313 313 314 316 315 315 317 318 319 319 318 317 317 317 317 318 319 319 320 320 320 320 319 318 318 317 318 315 311 313 315 314 314 314 314 315 315 315 314 314 314 314 314 314 314 314 314 315 315 315
312 311 310 309 309 309 309 309 309 309 309 309 309 310 310 310 310 309 309 310 311 311 311 312 312 313 313 313 313 313 313 313 313 314 314 314 313 313 313 313 313 315 316 315 316 318 319 318 317 317 316 316 316 318 319 318 319 319 318 318 318 317 319 318 317 314 311 312 314 314 314 313 313 314 314 314 314 314 315 315 315 315 315 315 315 315 315 316
317 316 315 314 311 310 309 308 308 308 308 309 309 309 309 309 308 308 310 311 312 311 311 312 312 312 312 312 312 312 312 312 312 313 313 313 313 313 313 314 314 314 315 315 316 317 318 317 317 317 317 317 318 318 320 319 316 319 320 318 317 317 318 318 318 317 314 313 314 315 314 314 315 315 315 315 314 314 314 314 315 315 315 315 315 315 315 316
321 320 320 319 318 316 311 310 310 308 307 309 310 310 309 309 309 310 312 314 314 314 314 314 313 313 312 312 311 312 312 311 312 312 313 314 314 313 313 314 314 314 314 315 316 317 317 317 317 319 320 321 320 319 321 322 317 317 321 321 318 318 318 319 321 321 320 319 316 316 317 316 318 318 318 318 317 316 314 314 314 314 315 315 315 315 315 315
323 322 322 322 322 321 317 315 313 308 308 311 311 310 310 310 311 312 314 316 316 316 315 315 315 314 313 313 312 312 312 312 312 312 313 314 313 314 313 313 314 314 315 315 315 316 317 317 318 320 320 322 323 320 320 323 318 315 322 326 321 318 321 323 322 321 323 321 317 319 319 317 317 317 317 318 319 318 316 316 315 313 314 315 315 314 314 315
323 323 323 323 323 323 321 319 315 309 310 313 311 310 311 311 311 311 314 317 317 317 317 314 315 315 314 313 312 312 312 312 313 313 313 313 313 314 313 313 314 314 314 316 316 317 317 317 318 320 321 322 322 319 319 320 318 318 323 325 320 318 320 322 321 321 322 319 317 320 320 317 316 315 316 317 318 318 316 317 316 313 313 314 315 314 314 315
322 322 323 323 323 323 322 322 320 312 309 309 308 310 311 310 310 311 315 318 318 318 317 313 312 314 314 313 312 312 311 312 314 314 312 313 313 313 313 313 314 314 314 316 316 318 321 321 322 322 321 321 319 320 323 322 319 319 320 320 319 319 318 318 318 320 319 317 318 321 319 317 316 315 317 317 316 317 315 316 316 314 313 313 314 315 314 315
322 321 322 322 323 323 322 323 322 317 311 307 308 310 310 309 309 312 315 317 318 317 315 313 313 313 313 312 312 312 310 311 313 312 310 311 312 312 312 312 312 313 314 314 315 318 321 318 317 320 321 319 318 320 324 325 320 318 318 318 319 318 316 316 317 317 317 316 317 321 320 316 316 317 319 317 315 316 315 315 315 313 313 314 314 315 315 315
322 322 322 321 322 322 322 322 323 321 315 308 308 311 310 309 311 314 316 316 318 317 312 312 314 313 312 312 312 312 311 310 309 310 310 311 311 310 311 311 311 313 315 316 316 316 315 310 311 317 318 316 317 315 314 318 317 315 317 317 318 318 316 315 315 315 317 317 317 319 319 316 316 319 319 317 316 316 315 314 314 313 313 314 314 315 315 315
322 323 323 322 322 322 321 321 322 323 320 312 309 310 311 312 312 314 317 316 317 318 313 312 313 314 312 313 315 313 311 311 309 310 311 310 311 310 310 313 312 314 316 317 316 316 314 312 312 316 313 311 317 316 310 310 313 315 317 315 317 320 317 316 315 316 318 318 318 321 319 316 317 317 317 316 316 316 315 314 316 317 314 314 315 316 316 316
322 323 324 323 323 323 321 321 322 323 321 313 309 310 312 314 313 314 316 316 317 318 317 316 315 314 314 315 318 315 312 313 310 310 312 311 312 311 311 314 315 316 318 317 316 317 317 315 314 316 313 311 318 318 312 310 312 317 317 315 318 319 319 319 320 321 321 318 320 323 320 317 316 316 316 316 316 316 315 314 316 317 315 314 316 317 317 317
323 323 324 324 324 324 322 323 322 323 321 313 308 311 313 314 317 318 316 316 319 318 318 320 316 316 317 316 319 317 316 316 312 310 313 314 313 313 312 314 316 318 320 319 318 321 322 320 316 316 314 313 315 315 315 315 313 314 316 317 320 320 318 320 321 324 322 319 319 320 321 320 317 316 318 317 316 316 314 314 315 315 315 315 316 317 317 316
324 323 324 324 324 324 323 321 320 321 320 314 310 313 312 313 319 322 319 317 318 318 319 321 318 317 318 318 319 320 319 319 314 311 314 316 314 315 315 314 315 317 320 319 318 320 321 320 318 318 317 314 314 313 316 319 314 311 314 317 319 320 318 318 320 320 320 319 319 317 320 321 316 317 320 317 315 315 313 315 315 315 315 315 315 316 316 315
324 323 324 324 324 324 323 321 319 320 319 314 311 313 312 314 319 320 319 318 317 317 317 318 319 319 320 320 320 320 319 319 317 313 315 316 316 316 316 314 314 315 317 318 318 318 318 318 319 317 315 314 314 313 316 321 318 313 314 316 317 319 318 317 320 318 317 319 318 317 320 319 314 315 318 316 316 315 313 314 314 314 315 314 315 315 315 314
323 322 322 323 323 323 323 323 321 319 317 313 312 312 312 316 318 318 318 316 315 318 317 316 320 321 320 320 322 321 319 319 319 316 316 315 315 316 316 316 315 313 315 317 319 319 317 320 322 316 313 312 311 313 316 319 320 315 315 317 317 319 319 318 320 319 317 318 317 316 318 316 313 315 317 315 315 316 315 315 314 313 313 313 314 314 314 314
323 322 321 321 321 322 322 323 322 319 314 312 313 314 314 315 316 315 316 315 314 317 317 316 319 320 319 319 321 322 319 318 319 318 318 318 317 316 315 317 316 314 315 316 319 321 317 318 320 316 315 312 306 308 314 314 315 317 318 317 317 318 319 318 318 319 319 318 317 315 315 314 313 316 318 316 315 314 315 316 315 313 312 312 313 314 314 314
321 321 320 321 321 321 321 322 321 316 312 311 313 315 315 314 313 314 315 315 314 316 317 316 317 319 318 316 318 322 319 317 319 318 318 319 318 317 316 317 317 315 314 315 318 323 319 316 318 316 315 312 306 309 315 312 311 315 316 315 316 319 320 318 317 318 319 317 315 315 315 313 313 314 315 316 315 314 314 315 315 314 313 312 313 314 314 313
320 319 319 320 320 319 319 320 318 314 310 311 312 315 316 315 314 314 314 315 315 315 316 315 316 317 317 316 317 320 318 317 318 318 317 317 318 319 318 317 319 317 313 314 316 318 318 316 317 315 312 312 309 311 316 315 312 311 311 313 314 315 318 319 317 316 316 315 314 315 315 314 314 315 315 316 315 314 314 314 314 315 313 312 313 314 313 313
317 318 318 319 319 318 319 319 315 311 311 312 312 313 315 315 315 314 315 315 315 315 315 315 315 315 316 317 316 317 318 318 318 317 316 315 316 318 318 316 319 319 315 314 316 316 316 316 316 314 310 312 313 312 314 316 315 312 312 313 313 312 314 317 317 316 316 315 314 315 315 314 315 316 317 317 315 313 314 314 316 316 312 312 313 313 313 313
315 317 317 317 317 317 318 315 312 310 310 312 313 313 314 314 313 314 314 314 314 314 313 312 314 315 315 316 314 315 317 318 318 317 316 315 315 316 317 316 318 320 317 316 316 316 316 316 315 314 313 313 314 313 312 314 315 314 313 313 313 313 314 315 316 316 315 315 314 315 315 314 314 316 317 317 315 315 315 317 320 317 312 313 314 313 313 313
315 316 317 316 316 317 316 313 311 310 309 310 312 313 313 313 313 313 313 314 314 313 311 311 313 314 314 313 312 313 314 315 316 317 316 316 315 315 316 316 316 318 317 316 316 316 317 317 315 315 316 315 314 316 316 315 315 315 314 313 313 313 314 314 315 315 315 315 315 315 315 314 315 318 317 315 315 315 314 316 318 316 312 313 313 312 313 312
314 315 316 316 316 316 316 313 311 310 309 309 310 311 311 313 314 314 314 314 315 314 313 312 312 313 313 313 313 313 314 314 314 315 315 315 314 313 313 314 314 314 316 317 316 315 316 317 315 314 316 316 315 316 316 312 312 314 315 315 314 313 313 314 314 314 315 315 315 315 315 314 315 318 318 316 316 314 312 312 313 311 311 312 312 312 313 312
313 314 314 315 315 315 316 315 313 311 309 309 309 310 311 312 313 314 314 315 315 315 314 314 314 313 313 313 313 313 314 314 313 314 315 314 313 312 311 311 311 312 313 315 315 313 314 316 315 314 315 315 314 314 313 312 311 312 314 314 315 315 314 314 314 314 314 315 314 314 314 314 314 317 318 316 315 313 312 311 311 311 311 312 312 312 312 312
311 312 313 313 314 315 315 316 315 313 311 310 310 310 311 311 312 313 313 314 315 315 315 315 314 312 313 314 313 312 313 313 313 313 313 312 312 311 310 311 310 310 311 312 312 312 312 313 314 315 314 314 314 314 314 315 312 311 312 313 313 314 315 315 314 314 314 314 314 313 313 313 313 314 314 314 313 312 312 311 310 311 311 311 311 311 311 312
310 312 313 312 312 313 314 314 314 314 314 312 311 311 311 312 312 312 313 313 314 314 315 315 312 311 313 313 312 312 312 312 312 311 311 312 312 311 310 310 310 309 310 310 310 313 315 313 313 314 314 313 314 313 314 315 313 312 313 313 313 313 314 314 314 314 314 314 314 313 313 313 313 312 312 312 312 312 312 311 311 310 311 311 311 311 312 312
308 311 313 313 312 312 312 313 313 313 314 313 313 312 312 312 312 312 313 313 314 314 314 315 313 313 314 313 312 312 312 312 312 311 311 311 312 311 310 309 309 309 309 309 309 314 316 312 312 313 313 313 313 312 312 313 312 312 313 313 313 313 313 314 314 313 313 313 313 313 314 314 313 312 312 312 312 312 311 311 311 310 310 311 311 311 311 311
307 308 311 312 312 312 313 312 312 312 312 313 313 313 314 313 312 312 313 313 314 314 314 315 314 314 314 314 314 314 314 314 314 313 312 312 311 311 310 309 309 309 309 308 308 312 313 311 312 313 312 312 312 311 312 312 312 312 312 312 312 312 313 313 313 312 313 313 313 313 313 314 313 312 312 312 311 311 311 311 311 310 310 310 309 310 310 310
305 307 308 309 309 311 312 311 310 310 311 311 312 313 313 314 314 313 313 313 314 314 314 315 314 314 314 314 314 314 314 315 316 314 313 312 312 311 311 311 311 309 309 309 310 310 311 311 312 312 311 312 312 311 311 311 311 311 312 312 312 312 313 313 312 312 312 312 312 312 313 313 312 311 312 311 311 311 310 310 310 310 309 309 309 309 309 309
303 304 304 304 305 307 308 308 308 309 309 309 310 310 311 311 312 313 313 314 314 314 314 315 315 315 314 314 314 314 314 314 316 315 315 314 313 312 312 313 313 311 309 309 310 309 310 311 312 312 311 312 311 311 311 311 311 311 311 311 311 311 312 312 312 311 312 312 311 311 312 312 311 311 311 310 310 310 310 310 309 309 309 309 309 308 309 309
301 301 300 300 302 304 305 307 307 308 308 309 309 310 310 310 310 311 312 313 313 314 314 314 314 315 315 315 314 314 313 313 314 314 314 315 314 314 313 313 314 313 309 308 309 309 309 311 312 312 312 312 312 312 311 310 311 311 311 311 311 311 311 311 311 311 311 312 311 311 312 311 310 310 311 310 310 310 310 310 309 309 309 309 308 308 309 309
299 299 299 299 300 302 303 304 305 306 307 308 309 309 310 310 310 310 311 312 312 313 313 313 314 314 314 314 314 314 314 314 313 313 313 314 314 314 314 313 313 314 311 309 309 309 309 310 311 312 312 312 312 312 311 311 311 311 311 311 310 311 311 311 311 311 311 311 312 312 311 311 310 311 311 310 310 310 310 310 309 309 309 309 309 309 309 309
Wind_Speed
6 6 6 7 7 8 8 9 9 10 10 10 11 11 11 10 9 8 7 6 6 6 5 5 6 7 8 9 9 10 11 12 12 13 16 12 10 11 9 8 6 5 3 3 4 3 2 4 4 4 5 7 7 7 9 7 6 3 2 3 4 5 5 1 2 2 1 0 3 7 8 5 3 6 10 9 12 15 13 15 16 16 18 19 20 20 21 20
7 7 7 7 7 7 8 8 9 9 10 10 10 10 11 11 10 10 9 8 7 7 6 6 6 6 7 8 10 11 12 13 14 18 18 15 13 12 12 10 8 6 4 3 3 2 2 5 5 5 8 8 8 8 7 6 6 6 3 3 5 5 4 2 4 4 3 4 3 4 7 7 5 5 8 5 8 14 13 16 18 18 19 21 24 25 27 26
9 8 8 8 8 8 8 8 9 9 9 9 10 10 10 10 11 10 10 9 9 8 7 7 7 7 7 8 9 10 11 13 17 21 19 16 15 14 13 12 10 8 5 4 4 3 4 6 5 6 9 10 10 9 8 6 6 8 6 3 6 4 5 6 5 4 3 5 5 5 5 7 8 6 6 5 8 10 12 14 16 20 25 26 28 28 29 29
9 9 9 8 8 8 8 9 9 9 10 10 10 10 10 10 11 11 10 10 10 9 9 8 8 8 8 8 8 7 9 11 15 19 17 15 16 15 15 13 12 10 7 6 5 4 4 5 4 6 10 10 12 11 7 8 7 6 6 4 7 4 5 6 5 2 3 3 5 9 5 4 9 9 8 7 6 8 13 19 20 24 28 27 29 30 30 30
9 9 9 9 9 9 9 9 9 10 10 10 10 11 11 10 11 11 11 11 11 10 10 9 8 9 8 8 7 5 5 5 5 7 8 9 12 15 16 15 13 11 9 8 5 4 5 4 4 6 8 9 11 9 7 14 11 4 7 10 14 12 6 4 3 2 5 4 6 8 7 7 7 10 14 11 8 11 13 16 19 23 26 26 28 28 28 29
10 10 10 9 9 9 10 10 10 10 11 11 11 11 11 11 11 12 12 13 12 12 11 10 9 9 8 8 8 6 5 3 3 4 6 6 7 12 15 15 14 12 11 9 7 5 5 4 5 8 8 7 9 9 10 15 13 5 8 13 18 17 10 7 6 6 7 6 7 6 8 9 6 9 15 17 22 26 19 13 14 16 18 20 23 26 27 28
12 11 11 11 10 10 10 10 11 11 11 11 11 12 12 13 12 13 14 14 14 14 13 13 12 11 9 8 9 8 11 13 14 14 14 12 9 10 13 15 13 13 12 11 8 5 5 6 8 11 8 7 8 9 8 8 10 6 7 11 17 18 13 12 10 9 10 9 11 9 8 9 9 8 12 22 32 33 27 21 20 20 18 17 19 23 25 26
13 13 13 12 12 12 12 12 12 12 12 12 12 12 13 14 14 14 14 15 15 15 15 14 14 13 10 8 9 9 14 19 20 19 19 17 13 12 13 14 14 13 13 12 9 6 6 8 11 12 7 6 6 6 3 2 7 8 8 12 14 13 12 13 13 13 13 13 14 11 10 13 16 12 13 29 37 29 27 25 24 25 24 22 23 25 26 27
15 15 15 15 14 14 14 14 13 13 13 13 13 13 14 15 15 16 16 16 16 16 16 16 15 14 11 9 7 7 12 16 17 17 18 17 15 14 15 15 15 14 14 13 11 8 8 8 9 7 4 8 10 10 6 3 4 5 8 11 11 12 14 14 15 16 15 15 13 9 12 17 19 13 15 36 41 30 28 26 25 26 25 26 26 29 30 31
16 16 16 16 16 16 16 16 16 16 15 15 15 14 15 15 16 17 17 18 17 17 17 17 16 14 11 9 4 5 10 12 12 14 14 14 14 15 17 17 16 16 14 13 12 11 11 9 9 8 8 10 10 11 8 4 4 6 9 12 14 17 20 20 19 19 17 16 15 12 10 15 16 8 12 32 29 20 23 26 27 27 27 29 28 29 31 33
18 17 17 18 18 18 18 18 18 18 17 17 16 16 16 16 17 17 18 18 18 19 18 18 17 14 11 9 7 9 13 14 13 13 13 13 13 14 16 17 17 17 15 14 14 13 12 12 12 10 8 5 6 9 7 6 8 10 9 12 16 18 22 23 21 21 17 12 17 15 7 12 10 6 18 34 25 13 15 19 24 26 29 31 30 30 30 32
20 20 19 19 19 20 20 20 20 20 20 19 19 19 18 18 18 18 19 19 19 19 19 19 17 14 11 11 15 17 19 19 18 18 17 17 16 15 14 14 15 16 16 14 13 13 13 13 12 10 8 6 6 7 5 5 8 9 6 7 13 14 16 20 21 22 16 7 13 13 4 10 9 14 30 39 32 22 18 18 20 24 28 29 31 31 31 33
24 23 23 22 22 22 22 22 22 22 22 22 21 21 20 21 21 20 20 20 20 20 20 19 17 14 10 12 20 21 19 19 19 19 19 19 18 17 15 14 14 15 16 15 14 14 14 13 11 11 11 8 6 6 8 10 9 8 6 5 10 9 9 17 19 19 14 7 13 13 2 8 9 20 33 33 31 26 22 23 23 23 26 28 31 33 34 35
27 27 26 26 26 26 26 26 26 26 25 24 24 23 23 22 23 22 22 21 21 21 20 20 18 13 9 15 22 21 19 20 20 21 21 20 19 17 16 15 14 14 15 16 16 15 13 12 11 11 12 11 9 9 9 10 7 5 5 5 5 4 6 10 7 12 10 7 17 13 4 9 7 17 25 23 25 24 23 26 25 25 27 28 31 33 35 36
27 27 27 28 28 28 29 28 29 29 28 28 27 26 25 25 25 24 24 23 23 22 22 20 17 11 10 17 23 19 18 19 20 21 20 19 18 16 15 15 14 14 14 15 15 14 13 10 10 8 7 9 9 7 5 5 5 3 2 5 4 4 7 7 3 14 10 6 15 11 4 9 9 18 20 16 23 23 23 25 24 25 28 29 32 34 37 37
24 25 25 26 26 27 28 28 29 30 30 30 29 28 27 27 27 26 26 25 24 23 21 17 15 11 7 13 19 18 18 18 19 20 17 17 16 15 15 14 12 12 13 13 13 12 11 9 9 9 6 4 4 4 3 5 5 4 5 6 6 5 8 6 3 11 10 6 11 12 5 7 7 13 12 8 19 24 22 22 23 25 26 28 32 35 36 37
23 23 23 24 25 26 26 26 27 28 29 29 29 29 28 27 27 27 26 25 24 22 18 12 10 9 9 14 18 19 20 18 17 16 14 15 15 15 14 11 10 11 10 10 11 11 9 8 6 6 8 5 4 4 3 5 6 4 5 5 7 8 8 5 2 6 8 7 7 11 9 12 9 9 11 8 15 21 20 21 23 25 26 29 33 34 34 34
24 23 23 24 25 26 25 26 26 27 28 28 28 28 28 27 27 26 25 23 19 14 11 9 7 3 9 16 16 17 17 14 13 12 12 12 13 13 12 10 8 7 7 7 9 10 9 8 5 2 4 5 4 5 5 7 7 5 6 5 6 7 7 9 5 3 9 6 6 9 9 16 15 11 18 23 21 19 20 22 25 30 31 34 37 36 35 34
23 23 23 24 25 26 25 26 26 27 28 28 27 26 27 27 25 24 22 20 14 7 6 10 13 6 5 8 11 13 14 13 11 12 12 11 12 12 12 11 8 7 6 4 6 10 10 5 4 3 6 7 8 8 10 11 10 9 10 7 7 7 8 13 9 4 10 6 7 11 11 16 16 11 15 25 27 25 23 23 26 30 32 35 37 36 34 34
22 22 23 23 25 25 25 25 25 26 27 26 26 24 21 17 13 11 12 17 18 17 17 15 17 15 12 10 12 13 14 14 13 14 14 11 10 11 12 11 8 7 7 4 5 9 10 5 4 7 11 10 9 12 14 13 13 12 11 9 8 8 10 14 10 4 9 6 8 12 13 15 16 13 12 20 24 22 21 20 23 28 31 36 38 35 34 35
19 20 20 21 23 23 24 24 24 24 24 24 24 19 12 9 7 6 7 15 22 25 25 22 19 20 20 18 18 19 17 14 14 18 15 12 12 10 12 13 6 5 9 9 5 4 7 6 9 14 16 12 9 11 12 11 12 11 9 8 8 7 11 14 9 4 6 4 7 10 10 13 15 12 12 17 17 16 19 20 24 29 32 38 38 36 35 31
16 16 17 18 19 20 21 21 21 21 20 19 19 14 10 12 13 13 13 14 22 26 23 23 23 25 25 23 23 24 19 13 15 21 19 15 17 12 12 13 7 5 8 8 6 3 5 9 13 17 14 11 11 10 8 9 10 9 7 5 7 8 10 12 6 2 3 2 6 8 9 12 14 13 13 15 16 19 27 29 30 32 32 36 37 36 32 23
14 14 15 15 15 17 16 16 16 16 16 14 14 12 12 13 13 16 14 10 17 26 25 26 28 29 29 28 29 27 22 18 18 22 24 21 21 18 14 11 9 8 6 8 9 7 7 9 14 18 15 13 13 10 7 7 7 7 7 5 8 9 8 7 4 2 4 5 6 7 8 10 12 14 14 20 26 27 33 34 35 37 36 38 39 36 29 20
13 13 14 14 15 15 14 14 13 12 12 11 11 10 10 11 11 12 12 9 11 17 25 29 29 32 32 29 29 28 26 25 20 19 26 26 22 17 14 11 9 8 7 11 13 14 14 8 8 12 12 13 13 10 7 6 8 8 7 7 10 11 11 10 6 2 4 5 3 4 8 9 10 13 12 15 22 23 24 26 27 34 38 39 38 36 30 22
14 14 14 15 15 16 16 14 10 9 10 9 8 7 7 7 7 7 8 7 7 8 15 20 21 27 31 29 29 24 19 21 21 20 24 28 25 13 8 12 10 7 10 14 13 15 15 10 9 8 6 8 9 8 7 6 8 9 7 11 15 14 13 13 8 5 3 4 1 2 7 8 6 10 10 6 8 10 13 15 18 27 35 36 34 34 30 22
15 15 15 16 17 17 16 11 10 13 10 8 8 5 5 4 3 6 6 4 6 4 6 10 12 13 17 22 26 18 7 11 18 23 21 23 27 16 5 8 9 8 9 9 9 8 7 7 9 9 7 7 7 7 7 8 8 9 4 6 10 10 9 9 6 2 2 5 3 4 3 9 6 8 9 6 5 8 9 10 14 23 30 34 35 34 28 20
17 17 17 18 19 19 16 11 13 15 10 7 7 3 4 3 2 4 3 4 7 5 7 7 7 7 9 13 21 16 2 3 10 16 19 21 25 19 8 7 7 8 4 0 5 4 3 5 4 5 8 6 7 8 7 9 7 7 2 1 1 3 5 4 3 4 3 4 3 5 4 9 13 7 9 10 8 8 8 9 12 18 25 31 34 35 28 21
19 18 18 19 19 19 18 17 15 13 10 9 6 3 4 4 2 2 1 5 4 7 6 6 7 7 8 11 21 15 0 3 5 8 19 22 21 16 10 11 8 7 5 4 7 3 2 6 7 8 7 5 7 6 4 9 7 4 1 1 3 1 1 1 2 4 3 4 4 5 7 6 15 6 7 10 10 9 11 12 13 15 21 27 29 31 28 23
21 19 19 20 20 19 18 18 14 11 12 10 4 5 5 5 2 2 2 5 1 5 4 7 7 5 7 10 15 12 1 2 1 4 14 18 20 12 5 8 8 7 6 8 11 6 0 4 4 6 7 7 6 1 2 4 6 4 2 3 4 2 1 2 2 2 2 5 6 6 7 4 15 7 6 7 8 10 11 11 12 15 22 26 24 25 25 22
23 22 21 22 23 21 18 18 15 11 11 9 5 6 4 3 1 1 6 6 1 2 5 6 5 7 11 7 6 11 5 2 3 7 8 8 15 11 3 2 4 5 5 6 9 8 2 4 2 2 5 4 4 4 3 1 2 3 3 2 2 1 1 1 2 2 1 9 7 10 13 8 10 5 7 7 7 10 10 8 9 12 20 25 23 22 22 21
25 24 23 25 25 22 19 18 17 13 11 8 4 7 5 1 0 4 8 3 2 2 5 4 4 9 12 8 5 8 7 4 6 9 5 3 7 8 3 2 1 1 4 5 8 8 4 2 0 2 3 5 6 3 1 2 1 3 4 2 1 3 2 3 1 3 2 10 5 11 15 13 11 5 3 5 6 11 10 8 10 11 15 22 23 20 20 21
27 25 25 27 27 26 23 20 20 18 12 6 6 7 3 1 3 9 6 4 2 4 4 4 5 6 9 9 5 7 6 4 7 8 5 4 5 6 6 5 5 2 3 5 5 5 6 8 7 2 3 8 6 2 2 3 1 3 5 4 1 3 2 1 2 2 5 10 5 11 12 11 14 9 4 6 6 10 10 10 12 11 13 18 16 15 17 19
30 27 28 29 30 31 30 26 26 22 12 6 8 4 2 2 7 9 6 2 1 1 2 3 7 7 7 6 4 5 4 3 7 8 5 6 5 6 8 8 5 3 4 4 2 2 3 6 7 4 3 10 11 5 4 2 4 7 6 6 5 3 3 4 4 3 7 9 5 7 9 6 9 6 10 13 11 11 13 15 15 13 16 19 15 13 15 16
29 30 31 32 33 34 32 30 29 23 14 11 10 4 2 7 8 2 4 6 4 1 2 2 6 8 6 5 4 6 5 3 7 8 5 6 4 4 7 9 10 6 2 1 2 3 4 7 7 8 3 11 15 13 10 4 5 9 6 5 6 5 3 4 4 7 8 6 4 3 5 4 4 2 11 16 15 17 19 21 20 19 22 20 15 14 15 16
28 31 33 34 36 35 32 32 31 25 18 15 10 4 4 8 7 2 3 6 4 2 0 2 4 6 6 5 3 6 8 5 6 7 5 7 6 5 6 8 13 10 2 2 3 4 6 10 8 9 4 12 14 13 10 5 1 6 4 3 6 5 5 5 7 9 5 5 5 4 4 6 5 6 9 11 11 14 16 19 19 21 23 19 16 16 17 19
30 31 32 35 39 37 33 33 33 30 23 16 7 2 8 8 5 3 2 3 3 2 2 1 2 4 5 4 3 6 6 3 5 6 4 7 7 7 6 5 12 14 9 7 3 3 4 7 5 6 1 6 7 5 7 6 2 2 4 5 6 3 5 5 8 7 2 6 9 6 7 8 8 11 12 12 12 10 10 12 14 19 24 21 18 19 21 23
30 30 31 35 37 36 34 34 34 32 27 17 7 6 8 8 8 6 4 4 5 4 2 4 4 5 5 4 4 7 5 1 5 5 3 4 6 9 9 6 12 18 17 13 4 3 6 6 4 5 1 3 1 4 2 2 2 5 3 5 2 2 1 3 2 3 3 7 9 8 12 11 9 10 4 6 12 12 11 12 13 18 20 17 17 21 23 24
25 25 28 34 36 33 31 34 35 33 25 12 7 11 8 5 7 9 10 9 8 6 5 6 5 6 7 6 4 7 8 5 6 5 4 4 4 9 11 8 10 18 22 18 6 4 4 5 5 2 1 1 2 3 3 3 1 5 2 2 2 1 2 2 2 2 5 7 7 10 14 12 12 12 7 3 10 13 13 15 15 15 12 11 17 22 23 23
19 17 19 25 27 21 22 30 34 32 18 7 9 9 6 6 7 9 13 13 9 6 7 8 7 5 7 8 5 4 9 9 7 6 5 5 5 8 12 9 9 14 21 20 10 4 3 4 6 1 2 1 2 1 4 2 1 1 3 4 1 2 3 3 3 3 5 7 8 10 13 12 10 8 8 8 11 12 12 13 12 10 10 13 19 21 20 21
16 10 10 16 14 8 10 23 29 24 9 5 9 8 5 4 6 10 16 15 7 5 6 7 8 8 8 9 9 7 7 9 8 6 6 6 6 5 9 10 6 8 16 16 11 6 2 5 7 1 3 1 1 4 7 7 5 3 1 3 3 2 1 1 3 3 5 6 7 7 10 13 7 2 3 7 10 11 12 10 9 8 11 16 19 18 17 18
13 7 9 16 10 2 11 20 16 9 3 3 5 7 7 5 6 9 16 17 11 7 4 4 6 6 5 6 8 8 6 6 7 7 5 5 7 5 5 11 8 5 8 7 7 7 4 5 7 2 2 5 5 6 9 11 9 7 7 8 8 7 4 3 7 6 5 5 6 6 9 14 7 4 3 5 9 10 10 9 7 7 11 16 17 16 16 17
10 6 8 14 8 7 17 15 5 3 3 4 6 5 5 5 6 10 16 18 14 9 4 3 5 5 4 4 6 6 4 3 3 4 4 5 8 4 2 9 9 6 7 5 7 9 5 3 6 7 6 7 6 4 5 7 6 4 5 7 8 8 7 8 10 7 5 4 6 6 10 16 8 4 5 4 6 6 7 6 5 7 12 15 16 17 18 20
11 9 10 12 9 13 15 6 3 6 3 5 8 9 10 7 4 7 11 11 10 7 4 4 5 8 7 4 5 5 4 4 5 8 9 7 6 9 11 10 8 3 2 2 3 4 3 3 5 7 5 5 8 7 2 1 0 3 5 5 6 7 8 10 8 5 6 6 6 8 10 14 10 1 4 5 4 4 6 7 8 10 14 17 18 19 21 23
11 13 13 14 15 18 13 3 5 7 6 7 8 11 15 12 9 11 10 9 9 4 4 6 6 8 7 3 4 5 3 4 6 9 11 8 9 17 21 21 17 8 3 4 3 1 1 1 3 5 4 4 7 9 7 2 1 3 6 7 9 9 9 9 5 4 7 9 12 13 11 11 11 5 5 8 9 9 11 12 12 11 13 16 17 20 23 26
8 9 11 16 25 27 18 10 10 8 8 12 12 14 15 10 13 23 21 16 16 10 5 6 6 7 6 4 6 8 9 8 6 5 6 6 10 16 21 23 18 8 9 10 4 3 3 3 2 3 6 7 7 8 7 2 2 2 5 9 12 12 11 10 7 6 9 12 15 15 11 12 14 14 13 15 15 13 14 17 16 15 19 22 23 25 28 30
5 4 5 11 26 32 23 17 14 8 8 12 10 11 16 12 13 25 26 19 19 19 14 8 4 3 4 7 9 10 11 11 9 5 3 5 6 8 15 21 17 14 17 13 2 4 3 4 6 8 10 11 11 12 10 6 5 5 7 10 11 11 12 11 8 9 11 12 14 14 14 16 18 20 23 23 20 18 17 17 17 20 25 28 27 28 30 31
4 3 3 4 12 20 19 18 14 6 7 11 6 5 14 16 11 14 18 15 17 20 14 8 8 7 6 9 10 11 11 12 12 11 9 10 9 8 14 16 14 17 18 9 8 6 2 5 11 14 17 17 17 19 19 16 16 15 16 16 13 11 13 12 12 14 14 13 14 14 15 19 18 19 25 27 23 18 15 14 19 25 30 30 28 27 27 26
6 6 7 4 3 6 9 12 13 8 7 9 6 6 13 17 13 10 11 13 17 17 9 6 12 15 15 15 12 10 11 11 11 12 11 12 11 11 12 11 13 21 18 7 7 6 3 7 13 15 20 22 21 24 24 21 21 20 20 21 21 19 17 17 20 23 20 17 15 14 18 23 21 19 23 23 20 16 18 24 32 35 37 36 31 26 26 26
9 9 10 9 5 4 7 8 8 9 9 8 6 7 11 15 17 14 10 9 10 12 11 10 12 16 19 20 16 12 11 11 12 12 11 12 13 10 8 9 14 21 18 10 6 6 5 7 11 16 20 21 22 23 24 24 23 21 22 22 22 22 21 21 24 26 24 22 20 21 26 26 21 20 20 20 21 22 27 35 40 39 39 41 37 28 26 27
8 7 8 10 8 8 13 12 7 5 7 7 6 6 9 12 15 13 10 10 9 8 13 18 19 18 18 20 19 17 16 17 18 16 13 11 10 8 7 8 11 11 10 8 6 7 8 9 12 14 14 15 19 21 23 24 23 24 25 22 19 20 22 23 22 19 18 20 22 24 24 21 19 19 19 20 23 26 28 31 35 38 39 40 38 31 25 24
11 9 8 8 6 6 10 10 7 5 5 6 5 6 9 12 14 13 12 16 17 12 10 15 18 16 16 18 19 19 20 22 23 25 24 20 14 12 9 8 10 8 5 6 6 6 8 9 8 9 10 11 15 19 23 23 22 23 22 19 20 22 23 22 20 18 17 19 22 21 18 15 16 16 14 16 20 22 24 25 29 36 40 39 38 33 27 26
11 13 11 8 4 5 7 6 5 7 7 6 6 8 10 11 12 13 12 14 20 24 23 21 17 13 13 16 19 22 26 28 28 29 31 29 27 27 22 14 12 10 5 6 6 5 6 7 6 7 10 10 12 17 20 17 15 14 15 20 27 27 25 23 21 21 23 20 17 16 15 16 15 12 12 16 20 22 23 26 29 34 38 41 40 35 32 33
Wind_Direction
332 336 338 341 346 350 353 355 358 360 1 3 5 8 11 15 17 15 7 349 335 330 331 331 323 315 302 290 286 283 283 280 279 277 269 261 254 257 263 266 266 267 286 305 306 310 286 293 275 233 226 248 253 233 239 240 221 216 202 228 243 249 253 285 321 356 39 50 128 176 188 212 225 195 221 239 235 235 241 243 238 235 238 241 243 246 246 245
323 325 327 333 336 339 344 347 351 354 356 358 0 3 3 7 9 11 9 1 347 329 319 316 313 313 309 297 288 283 281 282 282 273 265 262 256 257 257 252 249 249 264 273 285 299 268 285 275 228 220 240 244 222 230 230 203 213 233 253 245 260 269 293 333 345 360 326 321 198 192 218 243 204 204 229 235 225 234 244 238 236 237 239 241 243 246 246
318 320 323 327 329 333 337 339 344 348 351 353 355 358 359 360 1 5 7 5 359 346 331 315 307 305 308 305 294 283 281 285 281 273 266 262 257 254 251 244 240 243 248 252 268 262 242 260 259 237 234 242 239 217 217 216 200 222 228 263 252 271 318 313 328 325 318 318 313 289 224 206 238 228 186 213 252 229 226 236 226 227 231 233 238 241 244 245
314 317 319 322 325 327 329 334 338 341 346 347 350 352 354 355 354 356 359 2 0 355 348 333 317 305 304 308 302 289 288 289 277 275 274 264 256 249 245 241 239 242 245 249 262 263 259 264 264 258 247 250 245 220 205 206 201 220 206 229 265 283 320 318 346 327 294 303 286 292 282 223 242 239 210 212 258 246 233 238 229 229 236 233 234 241 245 246
310 312 314 317 318 321 325 328 331 334 338 339 342 343 344 347 347 347 349 353 356 355 352 345 335 319 307 304 303 287 286 300 275 282 295 270 251 243 240 239 238 239 245 249 257 268 289 292 278 264 247 258 253 223 219 219 210 240 236 243 264 270 276 300 335 255 258 266 265 277 271 256 250 237 227 215 230 243 234 241 242 239 242 239 236 241 244 246
305 307 308 311 312 315 317 320 324 327 329 331 333 333 335 337 338 340 340 344 347 350 350 345 343 332 316 302 296 269 233 250 279 308 329 309 257 238 235 237 237 239 243 246 255 268 294 292 256 249 239 251 255 243 244 219 200 232 253 248 262 271 273 276 279 256 254 256 247 253 260 259 248 242 240 228 235 247 245 244 259 255 243 239 239 240 240 242
300 302 303 305 305 308 310 313 316 318 321 323 324 325 326 327 330 332 333 336 338 342 345 342 340 335 325 303 290 265 233 246 267 276 291 301 282 247 236 238 239 241 244 246 252 261 285 278 253 255 252 248 260 265 255 191 185 227 262 259 270 279 275 268 273 263 252 247 243 248 269 260 236 245 255 246 246 251 255 252 257 264 256 243 240 240 241 245
295 297 298 299 300 302 303 306 307 310 313 314 316 317 318 320 322 325 326 329 331 334 336 336 336 333 325 306 295 277 248 255 270 275 280 286 279 262 245 241 243 245 246 246 245 246 261 268 263 265 266 266 299 315 307 182 204 224 250 260 268 278 275 269 267 259 251 248 247 249 259 252 242 251 266 259 257 256 255 254 251 256 259 252 247 247 247 249
292 293 294 295 296 298 299 300 301 303 304 306 309 308 311 313 314 318 320 322 324 328 330 330 332 330 322 307 297 280 265 269 275 276 280 281 273 261 251 248 249 248 247 245 241 234 236 255 268 266 289 296 301 303 292 262 224 231 267 279 288 288 285 278 262 249 244 244 240 237 248 252 252 257 265 261 263 263 256 252 248 247 252 252 249 250 250 251
288 289 291 292 293 294 295 296 296 297 298 299 301 302 304 305 307 311 312 316 318 321 324 326 329 328 315 302 272 257 282 284 277 276 278 280 273 259 252 251 251 250 248 245 239 232 229 244 260 266 290 295 291 284 265 236 260 292 304 302 294 286 282 274 264 252 240 238 228 216 242 257 254 241 254 262 267 269 255 248 246 241 244 249 248 248 250 252
286 287 289 290 290 291 292 293 293 293 294 294 295 296 298 299 301 303 305 309 310 314 318 320 326 322 307 288 237 247 286 289 281 281 278 281 279 266 258 252 252 250 244 242 241 238 232 237 250 264 278 277 297 292 254 233 271 293 312 307 286 279 275 263 257 249 235 237 224 212 249 263 248 209 242 258 263 261 251 244 242 237 239 244 246 246 246 249
287 286 286 287 288 289 289 291 291 291 292 292 292 292 294 296 296 297 299 301 303 307 310 314 319 315 304 272 250 265 285 285 282 282 278 280 278 271 265 256 251 247 239 238 243 247 241 241 246 247 256 265 301 302 260 264 291 293 302 301 284 280 273 257 250 237 220 225 210 193 270 263 229 223 242 257 260 252 249 244 240 237 237 239 243 246 245 248
288 288 288 288 288 288 288 289 289 289 290 289 290 291 293 294 294 295 295 296 298 300 304 309 312 309 292 267 272 284 287 282 280 279 277 277 273 267 264 257 252 244 239 237 238 245 246 249 246 238 251 264 278 278 281 295 291 278 263 257 281 292 273 259 250 223 202 191 177 160 255 255 231 232 240 259 261 246 240 242 239 236 238 239 242 246 247 247
286 287 289 289 290 291 290 291 290 289 289 289 289 290 291 293 294 294 294 295 295 297 300 303 305 300 270 271 287 287 279 278 275 273 273 272 269 263 258 256 253 246 243 242 241 247 249 251 250 247 254 249 251 273 289 290 267 254 275 252 257 282 273 274 245 179 172 175 168 156 253 252 262 253 243 253 252 235 228 235 235 231 235 241 245 250 250 247
287 288 289 290 291 292 291 292 292 291 291 290 290 290 291 291 291 292 293 293 292 294 296 296 296 286 262 276 286 283 276 274 269 271 272 268 265 261 255 252 254 250 246 246 245 249 249 246 242 243 255 243 243 271 289 274 250 212 259 266 231 227 263 282 156 162 169 173 174 165 255 249 256 265 260 252 237 224 219 230 233 230 234 242 249 253 252 251
288 290 291 293 293 293 293 294 295 293 292 291 291 291 291 290 290 290 290 290 290 290 290 289 284 269 254 275 279 276 273 267 266 273 273 268 261 253 253 254 254 252 247 247 247 246 244 240 238 238 244 237 215 226 262 271 266 209 195 248 242 234 266 271 184 187 174 130 186 195 235 257 235 247 261 239 218 214 216 228 231 233 238 244 252 254 251 250
287 289 291 293 293 293 294 296 296 294 294 294 294 294 293 292 291 290 288 287 285 283 280 272 269 261 250 267 271 268 268 266 270 276 274 268 256 247 249 250 247 247 245 246 247 240 233 227 226 241 236 229 214 206 238 257 259 241 210 238 242 238 259 260 275 229 188 134 200 214 232 255 250 248 262 252 219 210 213 228 237 246 253 256 258 258 254 250
287 288 289 290 290 291 292 294 294 294 295 296 297 298 297 297 296 292 287 282 276 275 271 234 209 246 255 254 254 256 263 270 274 278 275 260 249 245 236 230 232 237 235 239 242 223 214 218 204 239 246 219 214 198 205 230 236 252 248 260 262 250 254 258 278 215 186 175 218 217 230 250 255 258 263 264 254 234 225 232 245 255 259 261 262 261 260 255
288 289 290 291 290 290 291 292 292 293 294 295 297 298 298 300 299 291 280 266 245 235 261 214 190 202 248 239 240 248 260 271 275 276 270 253 242 235 222 218 211 206 211 213 221 200 187 198 196 225 251 221 209 203 213 231 240 260 267 270 271 271 268 265 273 192 179 194 221 221 231 250 256 250 251 259 260 256 248 241 244 251 256 260 262 261 260 257
290 292 293 293 291 292 292 292 292 293 295 295 297 300 303 306 301 289 262 245 240 245 258 238 215 227 240 244 250 254 259 265 269 266 265 253 230 220 212 209 197 204 222 199 187 185 180 190 202 222 240 229 216 216 223 234 243 255 265 268 266 269 269 270 277 215 185 196 222 227 235 249 258 256 250 257 260 261 260 254 249 252 257 262 264 265 263 260
296 297 297 296 294 294 294 294 294 294 296 297 299 304 304 294 285 283 268 264 267 266 262 254 240 238 244 247 249 254 257 260 262 258 261 242 213 204 201 196 185 209 220 214 214 185 187 212 219 227 242 246 241 238 237 241 246 254 259 268 272 265 266 274 280 212 179 199 238 243 249 255 260 261 257 257 258 256 256 258 257 258 261 264 266 267 266 265
305 305 305 303 300 300 299 299 299 297 298 297 298 299 279 274 275 273 280 281 275 270 263 256 246 239 243 244 246 251 251 250 250 247 247 227 204 199 193 186 195 217 196 202 227 223 216 232 232 236 248 256 256 254 254 259 260 264 268 277 275 268 274 279 274 171 142 194 249 258 262 263 264 263 260 256 252 252 252 253 257 260 262 263 265 265 266 265
312 314 314 312 312 313 311 312 310 304 303 300 298 292 278 281 280 275 278 275 273 268 257 249 243 239 240 240 245 246 240 240 242 238 240 224 198 198 199 186 209 226 188 190 210 223 234 231 229 239 249 253 255 247 235 260 263 248 251 263 264 261 270 278 261 168 177 207 246 275 272 266 269 265 258 253 251 253 253 253 256 259 261 262 263 264 265 258
316 319 319 323 326 327 329 327 321 317 317 314 307 295 287 288 281 283 283 268 270 263 254 250 241 238 239 239 245 241 234 239 238 235 237 221 193 195 209 205 216 228 217 212 215 231 245 235 209 228 239 238 245 241 216 241 260 239 220 230 252 257 253 256 262 231 216 228 247 306 288 264 251 251 252 249 246 249 250 249 250 254 259 264 263 264 262 251
318 319 323 329 331 336 339 334 331 338 338 333 326 307 298 296 278 301 309 274 258 236 244 246 233 235 237 235 238 232 231 240 235 233 233 214 195 188 207 208 213 228 228 226 229 240 250 241 213 215 224 219 229 238 206 202 258 260 213 218 243 256 259 264 288 338 325 276 232 30 303 273 208 222 247 246 225 234 240 238 239 242 250 261 264 264 263 253
316 319 326 329 331 336 339 341 337 334 334 331 333 316 286 277 260 313 339 286 262 184 184 210 211 226 227 223 220 210 230 248 228 228 223 209 202 196 196 197 206 234 227 227 242 247 244 220 207 210 217 217 228 251 216 193 254 272 227 224 248 262 270 270 289 323 255 265 241 104 331 286 252 220 243 247 209 220 227 228 237 235 239 252 261 264 265 259
308 315 324 325 328 332 333 336 329 328 329 319 326 316 261 234 241 321 357 285 263 157 142 178 182 189 196 201 193 181 234 227 196 213 206 200 202 199 212 198 196 229 204 152 260 240 180 168 166 204 217 221 228 249 223 188 231 265 233 218 272 268 267 257 259 237 230 292 277 151 144 277 279 244 215 223 215 226 231 227 244 242 237 244 253 262 265 259
298 306 315 316 318 321 324 324 325 334 327 312 312 264 229 204 226 346 355 278 255 126 133 176 175 191 185 174 180 180 339 117 146 202 195 194 196 194 221 223 218 224 166 168 239 256 127 177 196 200 198 219 223 238 209 179 210 248 191 105 105 124 260 129 226 246 276 323 279 184 148 259 282 265 185 204 206 221 232 228 239 248 245 242 245 257 262 257
290 294 300 302 304 308 316 316 320 337 328 317 297 236 213 193 232 12 251 258 202 118 135 162 167 189 165 156 189 207 284 94 154 187 182 192 195 189 230 235 242 257 219 212 233 262 50 179 218 191 182 222 215 104 39 178 209 217 154 84 86 98 35 96 232 256 335 287 245 194 155 228 279 275 155 189 205 213 226 227 232 241 248 249 244 250 255 251
284 287 290 289 291 297 306 306 308 325 330 324 280 224 198 198 236 320 239 251 360 101 121 148 168 161 150 139 209 224 220 169 126 136 156 190 197 202 276 275 261 278 267 261 259 263 228 93 19 221 195 199 129 85 24 74 152 157 134 77 47 284 9 72 241 105 329 270 240 194 181 194 272 285 139 177 198 198 209 215 227 240 248 252 250 246 242 239
279 282 283 282 285 290 291 292 297 307 320 317 252 191 177 197 42 230 236 265 6 160 123 152 177 146 159 174 197 203 206 205 146 146 165 176 189 206 250 260 198 326 299 284 273 265 240 156 165 237 181 127 101 85 15 41 102 126 125 130 339 301 10 32 306 96 234 267 229 181 185 191 235 258 144 205 204 193 201 196 209 229 240 247 250 244 232 227
273 275 276 277 279 279 272 273 281 287 298 290 205 181 177 187 230 235 235 50 46 201 150 170 177 159 189 210 208 176 179 198 169 170 183 157 171 198 206 204 163 139 267 244 245 253 244 230 205 180 185 172 154 96 16 351 302 150 139 140 147 281 306 319 254 141 226 256 225 178 181 200 237 246 216 238 221 196 206 200 198 208 229 242 243 229 221 222
266 268 270 270 270 271 268 268 269 269 276 243 188 158 31 226 231 233 213 178 251 196 98 142 169 179 191 207 220 172 181 212 167 180 192 161 190 213 213 222 201 218 246 217 243 229 263 264 188 158 246 192 173 173 214 259 192 179 160 149 167 210 250 248 241 243 244 258 255 183 174 217 264 249 204 221 226 203 203 207 208 215 233 246 242 220 219 226
263 264 264 263 265 268 266 262 258 258 255 215 175 99 35 236 244 232 165 207 235 232 33 72 157 188 202 210 198 155 182 235 158 174 193 162 192 224 211 221 218 235 266 233 279 193 247 289 184 165 204 179 181 207 209 155 162 197 176 158 194 196 217 243 233 246 261 280 276 176 162 222 271 205 190 207 222 216 209 209 215 229 238 245 238 220 225 236
266 266 265 264 263 263 262 257 253 253 239 196 156 108 185 229 252 268 245 243 245 219 152 36 153 187 226 232 201 176 203 225 163 168 196 186 200 216 201 201 202 205 174 202 256 175 232 271 197 165 159 162 182 217 201 125 134 217 155 158 232 204 190 244 254 249 276 317 272 212 210 240 269 275 228 215 224 223 218 211 210 226 236 234 223 219 232 243
267 267 268 267 263 261 260 256 253 247 224 182 141 179 208 225 229 208 258 254 251 223 134 236 208 191 235 229 201 209 213 224 176 166 201 213 226 226 207 186 190 194 189 191 226 180 225 275 179 144 32 166 182 228 193 170 202 186 142 193 227 176 164 220 266 274 288 284 271 254 254 272 300 285 244 219 221 214 210 209 205 223 232 226 219 225 239 247
269 268 267 266 266 265 260 257 250 233 206 175 165 211 213 234 229 224 284 330 319 308 169 217 211 184 224 234 206 203 188 196 190 173 189 206 227 222 212 211 187 191 202 199 211 235 227 267 212 160 283 250 296 337 274 235 136 130 178 217 202 30 92 173 257 301 264 257 271 274 271 282 289 282 264 194 212 206 197 201 207 221 225 218 218 230 242 249
274 273 270 268 269 266 261 258 242 212 185 166 210 225 216 230 222 225 259 288 300 283 242 239 219 188 221 242 226 186 170 188 185 173 203 207 214 198 190 213 194 190 207 205 207 256 213 253 260 157 46 316 14 340 283 312 86 138 224 275 107 129 248 168 174 229 244 250 268 277 279 277 260 264 296 242 204 201 200 202 208 218 215 207 219 231 242 248
279 276 271 272 273 270 265 253 223 192 172 172 214 225 223 234 245 245 258 277 290 270 248 248 236 220 234 248 259 192 176 196 188 176 207 208 222 195 173 196 204 195 204 197 199 242 179 216 259 342 11 350 29 239 199 226 275 81 359 346 81 167 180 180 191 200 223 240 263 278 283 278 256 248 264 237 195 190 198 202 209 216 207 207 220 233 242 247
279 274 267 271 280 300 262 227 199 175 168 207 210 228 246 262 282 261 252 258 270 261 259 263 257 252 252 253 262 251 210 206 200 201 212 194 219 224 176 183 199 202 205 196 199 221 168 210 233 328 355 264 189 204 187 190 201 177 238 253 223 208 150 227 249 221 216 229 245 258 269 272 262 157 220 204 179 189 197 199 215 221 214 216 223 233 242 251
276 266 263 266 277 291 192 192 181 168 206 247 234 247 257 287 317 286 269 269 270 264 272 294 277 273 287 270 260 262 241 224 216 215 223 211 231 260 179 184 190 175 186 190 205 210 187 214 220 210 256 234 228 212 199 208 206 186 200 211 210 206 195 245 248 229 217 226 234 239 257 264 262 77 79 160 171 193 189 181 196 202 213 222 227 237 249 261
257 248 262 261 256 182 175 175 177 192 201 231 237 247 271 287 288 279 281 283 280 276 280 298 271 262 289 285 273 295 306 285 262 229 243 243 235 258 189 202 209 169 159 183 216 207 170 160 221 231 235 245 262 239 195 222 239 237 226 217 215 206 195 222 237 236 238 227 231 241 251 257 259 68 69 132 149 166 167 168 190 207 228 241 243 246 253 261
238 243 255 259 241 193 177 174 218 200 207 247 240 249 258 258 263 262 264 263 261 261 250 258 262 249 255 267 276 308 335 311 290 268 281 297 271 297 332 324 313 331 177 237 251 204 136 122 216 241 266 301 300 293 298 25 253 266 259 232 224 219 217 231 238 241 244 226 229 245 247 257 266 194 169 198 191 209 231 244 250 249 253 256 254 252 253 257
245 251 247 246 231 206 192 193 219 209 230 247 245 250 248 246 247 247 246 236 227 218 227 237 233 233 240 242 254 261 239 247 264 259 271 290 277 287 309 321 326 332 279 302 360 138 245 290 223 244 268 289 295 285 277 284 131 219 240 235 238 238 238 251 255 243 246 235 236 247 248 257 267 246 204 227 243 252 262 265 263 261 261 256 255 260 262 259
258 254 240 226 211 206 209 216 220 222 218 225 235 237 239 246 235 232 238 239 230 219 223 236 225 227 234 226 242 241 220 222 247 252 249 260 269 275 282 290 301 297 271 293 342 133 225 269 223 228 240 238 246 252 250 231 147 210 236 234 240 240 237 247 250 241 244 236 236 246 254 260 269 273 267 263 264 270 277 282 282 278 274 271 269 271 269 262
256 239 229 213 202 208 222 227 226 233 213 219 232 226 229 239 233 231 235 240 238 233 233 234 208 208 229 222 238 249 237 231 237 239 228 233 252 262 256 261 266 257 260 275 261 147 183 223 208 215 229 232 236 245 256 262 243 246 247 236 236 239 237 241 244 241 248 249 243 245 254 261 266 273 275 274 274 276 280 287 288 281 277 277 277 274 269 262
257 248 215 202 202 215 232 233 227 227 206 214 212 194 224 235 241 235 227 226 234 233 235 236 218 215 225 222 234 247 243 240 236 233 235 234 238 250 245 243 245 248 253 242 189 169 135 211 216 221 229 233 237 243 251 258 253 249 250 246 241 236 233 236 242 242 245 253 251 245 252 261 259 259 267 272 275 278 282 285 284 282 282 282 279 273 266 261
239 264 245 248 228 209 225 231 232 239 229 221 211 201 225 232 232 227 220 228 232 224 222 235 218 219 226 227 233 239 235 241 240 230 233 236 239 250 249 240 241 246 250 238 195 186 197 229 222 224 231 232 235 240 243 249 251 248 248 248 248 246 239 235 239 239 236 242 252 250 249 254 255 252 257 265 273 281 285 283 283 285 286 284 278 269 265 264
250 274 272 279 289 262 275 279 262 251 245 241 234 226 232 235 233 228 220 229 234 215 215 233 224 217 223 226 232 237 230 236 242 231 224 227 227 233 245 248 247 243 238 234 218 193 206 231 218 224 236 234 232 238 240 244 250 252 250 246 246 250 247 237 236 238 239 243 250 250 249 251 255 255 255 262 272 279 283 283 283 282 281 280 277 270 267 267
255 276 298 306 304 288 287 288 286 274 255 247 242 232 241 249 250 248 232 228 240 212 205 227 234 226 224 225 228 232 228 229 241 241 230 225 220 214 225 234 239 236 219 218 224 196 205 224 215 221 241 238 232 237 238 239 243 248 251 252 250 251 249 243 241 240 243 248 247 248 252 255 255 256 260 268 273 276 278 277 275 274 275 276 277 274 269 265
257 273 305 316 304 285 281 274 269 280 260 234 231 234 241 246 250 258 254 244 249 249 230 238 245 241 240 239 235 239 238 235 240 244 242 244 240 226 222 217 219 222 195 198 213 189 198 226 224 225 247 239 226 232 236 237 240 242 249 256 253 248 245 244 245 243 241 246 248 249 251 252 252 255 263 269 269 267 266 267 268 270 271 272 274 274 271 267
273 279 288 299 289 262 271 279 278 277 266 247 251 254 255 259 256 256 262 251 245 250 251 252 258 260 255 251 247 248 250 248 250 253 255 259 258 250 247 239 226 225 194 183 211 198 195 221 219 221 245 243 225 231 238 239 241 238 233 237 241 244 247 249 250 249 246 244 245 246 244 247 253 258 262 264 262 258 257 258 261 266 269 270 271 273 274 271